Location: Unspecified
(0.0000°N, 0.0000°E)
Time: 09:32:04
(UTC+00:00)

A-11 Canister half - Visible Passes

Search period start: 22 June 2018 00:00
Search period end: 02 July 2018 00:00
Orbit: 1517 x 1683 km, 47.2° (Epoch: 21 June)

Date Brightness Start Highest point End Pass type
(mag) Time Alt. Az. Time Alt. Az. Time Alt. Az.
22 Jun 10.3 21:18:10 10° NNW 21:22:38 26° NNE 21:22:38 26° NNE visible
23 Jun 10.1 20:55:31 10° N 21:00:57 27° NNE 21:00:57 27° NNE visible
23 Jun 11.2 22:59:04 10° NW 22:59:09 10° NW 22:59:09 10° NW visible
24 Jun 10.0 20:32:53 10° N 20:39:20 27° NE 20:39:20 27° NE visible
24 Jun 10.9 22:36:05 10° NW 22:37:32 16° NW 22:37:32 16° NW visible
25 Jun 10.0 20:10:16 10° N 20:17:29 25° NE 20:17:45 25° NE visible
25 Jun 10.6 22:13:06 10° NW 22:15:58 23° NW 22:15:58 23° NW visible
26 Jun 10.1 19:47:41 10° N 19:54:33 23° NE 19:56:14 22° ENE visible
26 Jun 10.2 21:50:09 10° NW 21:54:26 32° NW 21:54:26 32° NW visible
27 Jun 10.2 19:25:08 10° N 19:31:36 21° NE 19:34:45 17° ENE visible
27 Jun 9.7 21:27:13 10° NW 21:32:58 44° NW 21:32:58 44° NW visible
28 Jun 10.3 19:02:39 10° N 19:08:40 19° NE 19:13:19 13° E visible
28 Jun 9.2 21:04:17 10° NW 21:11:32 60° NW 21:11:32 60° NW visible
29 Jun 10.5 18:40:13 10° N 18:45:42 17° NE 18:51:07 10° E visible
29 Jun 8.8 20:41:23 10° NW 20:50:09 82° NW 20:50:09 82° NW visible
30 Jun 10.5 18:17:52 10° NNE 18:22:44 15° NE 18:27:32 10° ENE visible
30 Jun 8.7 20:18:30 10° NW 20:27:49 84° NE 20:28:49 74° ESE visible
30 Jun 11.1 22:26:50 10° W 22:27:02 10° W 22:27:02 10° W visible
01 Jul 8.8 19:55:38 10° NW 20:04:56 77° NE 20:07:31 53° ESE visible
01 Jul 10.9 22:03:24 10° W 22:05:45 16° WSW 22:05:45 16° WSW visible
